TIME,DELAY(SENSOR),PRES,T(CTD),SAL,OXYGEN,RAWTEMP,T(OPTODE),TCPHASE,FLUOR,BETA(BETA700),BETA(BETA412),BETA(BETA440),CDOM,C(CSC),ED(ED412.40),ED(ED444.00),ED(ED489.70),ED(ED554.30),LU(LU411.80),LU(LU443.40),LU(LU489.60),LU(LU554.10),COMP,TILTX,TILTX(TILTY),CHECK
1342387753,5809,493.9100036621094000,7.2504000663757320,34.1865005493164060,74.4938583374023400,579.9498291015625000,7.2300801277160645,49.2816505432128900,52,105,87,80,79,15336,2147750875,2147423460,2148002934,2147873792,2147626806,2147081481,2148242048,2147203538,4,4,13,58230
1342387870,5809,483.7300109863281000,7.4165000915527340,34.1819000244140600,78.6979522705078100,574.8068847656250000,7.3951377868652340,48.6957397460937500,52,105,88,81,78,15332,2147749787,2147421339,2148000429,2147873033,2147628214,2147084388,2148240201,2147206857,220,5,13,52104
1342388009,5808,471.8999938964844000,7.5894999504089355,34.1724014282226560,84.8526000976562500,569.1986083984375000,7.5748648643493650,47.8881111145019500,52,106,91,80,79,15339,2147746240,2147418660,2148001472,2147869321,2147630025,2147087332,2148237513,2147203803,566,5,13,24548
1342388136,5807,461.6199951171875000,7.7947001457214355,34.1688995361328100,91.8566665649414000,562.3549804687500000,7.7938098907470700,46.9913597106933600,51,108,90,80,78,15340,2147748736,2147421549,2148004662,2147869440,2147625179,2147086518,2148239881,2147203867,702,4,13,38007
1342388289,5810,450.6300048828125000,8.0156002044677730,34.1636009216308600,101.3373031616211000,556.1016845703125000,7.9935150146484375,45.8626708984375000,51,107,88,81,79,15337,2147745563,2147422528,2148000859,2147874532,2147625536,2147091492,2148237641,2147204288,444,4,13,62435
1342388452,5807,439.9299926757812500,8.1700000762939450,34.1594009399414060,108.5260009765625000,551.2587890625000000,8.1479549407958980,45.0369491577148440,51,107,89,80,78,15329,2147745472,2147420964,2148000950,2147873472,2147626413,2147089828,2148237622,2147203072,1213,4,13,11799
1342388600,5810,428.7300109863281000,8.3570003509521480,34.1554985046386700,114.5546035766601600,544.8698120117188000,8.3514041900634770,44.3284492492675800,51,106,89,81,77,15333,2147743734,2147424054,2147997430,2147873965,2147623844,2147092635,2148231332,2147203785,381,5,13,9931
1342388739,5810,417.3099975585937500,8.5580997467041020,34.1520996093750000,123.8271026611328100,538.5607299804688000,8.5519790649414060,43.3292808532714840,51,107,90,81,76,15334,2147742829,2147420333,2148002340,2147872768,2147621220,2147096374,2148228443,2147202816,691,5,13,32485
1342388880,5808,406.3900146484375000,8.7878999710083000,34.1333999633789060,137.9203033447265600,531.6074829101562000,8.7726688385009770,41.9381713867187500,50,109,89,81,75,15334,2147744320,2147421942,2147999104,2147873883,2147622985,2147094720,2148231094,2147202816,1579,4,13,6038
1342389031,5806,395.4100036621094000,9.0045995712280270,34.1171989440918000,156.5265045166015600,524.8660888671875000,8.9862728118896480,40.2851905822753900,50,106,87,81,75,15340,2147744210,2147421586,2147997970,2147872521,2147620982,2147090267,2148228763,2147203995,2649,4,13,40889
1342389190,5808,382.8299865722656000,9.3458995819091800,34.1249008178710940,166.9066009521484400,512.4116821289062000,9.3799991607666020,39.2784690856933600,50,107,85,81,74,15339,2147739510,2147423195,2148001828,2147874148,2147619849,2147097234,2148226550,2147205558,1949,5,13,54167
1342389305,5806,371.4400024414062500,9.5795001983642580,34.1282997131347660,176.5236968994140600,505.9314880371094000,9.5844097137451170,38.4728507995605500,50,106,89,81,75,15340,2147741348,2147419821,2148002075,2147872292,2147620260,2147105115,2148227355,2147204626,2371,4,14,37083
1342389420,5806,359.6099853515625000,9.8562002182006840,34.1325988769531250,186.5957946777343800,497.2680053710937500,9.8572282791137700,37.6371002197265600,49,107,92,80,73,15341,2147738130,2147423808,2147999515,2147871323,2147614162,2147103542,2148224310,2147204032,2615,4,13,13515
1342389525,5807,348.5299987792969000,10.1374998092651370,34.1427001953125000,193.1468963623047000,488.7745971679687500,10.1241798400878900,37.0652809143066400,49,106,90,80,73,15341,2147739657,2147421595,2148004900,2147868918,2147614262,2147105005,2148227072,2147206665,250,4,13,3016
1342389628,5804,337.8699951171875000,10.4216995239257810,34.1517982482910160,200.5615997314453000,479.5267944335937500,10.4143104553222660,36.4445495605468750,50,105,88,81,71,15342,2147735826,2147422290,2148008466,2147869494,2147613339,2147103862,2148225554,2147204315,715,4,13,64254
1342389731,5808,327.4200134277344000,10.7197999954223630,34.1647987365722660,207.5635986328125000,469.9700927734375000,10.7135496139526370,35.8639488220214840,50,105,87,81,70,15339,2147735954,2147423003,2148012672,2147873161,2147613531,2147110208,2148225197,2147206134,850,4,13,20103
1342389849,5806,317.1199951171875000,11.0317001342773440,34.1786994934082000,208.7604980468750000,459.1380004882812500,11.0520296096801760,35.6160812377929700,49,107,88,79,70,15334,2147735396,2147425124,2148017389,2147869988,2147609874,2147111661,2148223862,2147212260,556,4,14,34610
1342390012,5809,306.4200134277344000,11.5798997879028320,34.2039985656738300,210.9853057861328000,443.0823974609375000,11.5524797439575200,35.2257995605468750,48,108,89,81,70,15336,2147732489,2147426925,2148020443,2147873755,2147607360,2147112466,2148229659,2147204644,898,4,13,9969
1342390179,5809,293.6900024414062500,11.8163003921508790,34.2179985046386700,211.8168945312500000,433.2228088378906000,11.8591003417968750,35.0200119018554700,48,107,90,80,70,15338,2147734070,2147429888,2148035163,2147871286,2147607424,2147118034,2148225398,2147208978,3026,4,14,4236
1342390306,5812,282.5899963378906000,12.4923000335693360,34.2538986206054700,212.8110046386718800,413.5289001464844000,12.4700403213500980,34.6515693664550800,49,106,86,81,69,15338,2147735341,2147435364,2148051940,2147872274,2147601481,2147124891,2148236955,2147208009,42,4,13,8248
1342390447,5809,271.8800048828125000,12.7863998413085940,34.2760009765625000,212.7205047607422000,403.9989929199219000,12.7650003433227540,34.5074195861816400,49,105,90,79,68,15336,2147730825,2147442477,2148073609,2147873417,2147598473,2147134601,2148242596,2147208448,1152,4,14,45818
1342390610,5804,261.0599975585937500,13.3091001510620120,34.3194007873535160,211.3007049560547000,386.2033081054687500,13.3147296905517580,34.3126296997070300,49,106,88,80,69,15337,2147733714,2147452928,2148101732,2147875382,2147595648,2147143506,2148252992,2147211346,550,4,14,14774
1342390780,5806,248.9499969482422000,14.6068000793457030,34.4202995300293000,218.5039062500000000,345.3670043945312500,14.5716104507446290,33.2937889099121100,48,104,85,81,67,15336,2147730989,2147475629,2148146230,2147873252,2147595410,2147161664,2148272950,2147210386,3371,4,13,21057
1342390907,5808,238.1699981689453000,15.1962995529174800,34.4975013732910160,222.7993927001953000,322.6514892578125000,15.2685003280639650,32.7291793823242200,49,107,90,80,68,15335,2147728731,2147494573,2148207177,2147870747,2147591497,2147181184,2148301522,2147217252,882,3,14,23169
1342391036,5808,227.0700073242187500,16.2241001129150400,34.6072998046875000,221.2234954833984400,292.0452880859375000,16.2055606842041000,32.3710517883300800,49,107,89,80,67,15332,2147733494,2147532763,2148293339,2147872914,2147588580,2147210368,2148341696,2147221193,1561,3,14,22585
1342391163,5806,216.3300018310547000,16.5699005126953120,34.6525001525878900,220.4813995361328000,279.6265869140625000,16.5853099822998050,32.2333984375000000,49,109,91,81,67,15326,2147739556,2147587245,2148409490,2147870217,2147588278,2147242825,2148398665,2147226468,1621,4,14,42325
1342391302,5810,205.4299926757812500,17.4484996795654300,34.7579994201660160,218.1665039062500000,250.7039031982422000,17.4690399169921880,31.9487800598144530,51,106,89,81,67,15324,2147752585,2147670025,2148587885,2147872612,2147594633,2147296512,2148473627,2147230134,929,3,14,47194
1342391414,5809,198.6199951171875000,17.9675006866455080,34.8252983093261700,216.6674957275390600,234.8695983886718800,17.9526290893554700,31.8085193634033200,56,110,87,82,66,15323,2147768859,2147731565,2148709083,2147872155,2147598253,2147335232,2148534262,2147237933,2643,3,14,2462
1342391493,5809,194.5899963378906200,18.1676998138427730,34.8507995605468750,216.1943969726562500,227.7637023925781200,18.1696300506591800,31.7351608276367200,57,108,88,82,66,15319,2147782674,2147777206,2148799213,2147874240,2147600722,2147367835,2148575515,2147239232,1984,3,15,52855
1342391572,5808,190.7799987792968800,18.4748992919921880,34.8861999511718750,215.2738037109375000,218.4741058349609400,18.4533195495605470,31.6566200256347660,60,111,89,81,67,15313,2147800310,2147835273,2148903853,2147876242,2147606089,2147394852,2148615716,2147242304,1374,3,15,45081
1342391665,5812,186.4900054931640600,18.6872997283935550,34.9082984924316400,214.6719055175781200,211.0458068847656200,18.6801795959472660,31.5866909027099600,65,108,88,81,64,15311,2147820580,2147905298,2149032265,2147876315,2147609746,2147430665,2148672164,2147249444,1554,3,15,48474
1342391756,5810,182.4400024414062500,19.0090999603271500,34.9295997619628900,212.7198944091797000,200.3941955566406200,19.0055408477783200,31.5461997985839840,66,112,87,82,64,15307,2147852352,2147982784,2149172836,2147875254,2147621174,2147475108,2148732845,2147253805,1102,2,15,37956
1342391859,5805,178.8099975585937500,19.2593994140625000,34.9550018310546900,211.7557983398437500,190.0859985351562500,19.3204898834228500,31.4576396942138670,70,111,90,82,65,15303,2147878281,2148070537,2149330057,2147879012,2147632612,2147524214,2148802642,2147261595,3231,3,15,46389
1342391994,5808,175.1399993896484400,19.6340007781982420,34.9880981445312500,212.0478973388672000,180.0776977539062500,19.6263694763183600,31.3058395385742200,74,112,90,81,65,15302,2147916809,2148169124,2149503387,2147878710,2147647561,2147572544,2148868498,2147264923,1642,3,15,42827
1342392109,5809,170.6399993896484400,19.7688007354736330,35.0035018920898440,212.2082061767578000,175.4694976806640600,19.7672500610351560,31.2348499298095700,76,116,89,80,65,15295,2147975378,2148308525,2149748745,2147878619,2147663177,2147642834,2148963474,2147274450,1522,3,15,19653
1342392200,5807,166.7500000000000000,20.0900001525878900,35.0402984619140600,212.2548065185547000,167.0046997070312500,20.0261192321777340,31.1184501647949220,79,119,89,81,62,15293,2148030701,2148420562,2149930075,2147879872,2147685156,2147701942,2149048502,2147280996,1714,3,15,54477
1342392302,5809,162.3999938964843800,20.3805999755859380,35.0769004821777340,213.3011016845703000,155.8878021240234400,20.3662700653076170,30.9132499694824220,84,115,92,82,64,15287,2148148726,2148689444,2150374601,2147884489,2147730486,2147827712,2149227474,2147294710,2629,3,15,59316
1342392381,5810,158.2500000000000000,20.7383003234863280,35.1162986755371100,214.8701934814453000,144.3309020996093800,20.7201309204101560,30.6762504577636720,91,119,90,82,62,15276,2148296137,2148992365,2150867958,2147888402,2147781174,2147968859,2149433856,2147309970,2659,2,15,62076
1342392460,5804,154.3999938964843800,20.9659004211425780,35.1311988830566400,215.9105987548828000,135.2678070068359400,20.9978408813476560,30.5016098022460940,96,118,92,82,63,15272,2148336704,2148989878,2150749568,2147885778,2147795593,2147960832,2149363465,2147305334,1565,1,15,61664
1342392551,5808,150.5399932861328000,21.1189002990722660,35.1088981628418000,219.7651977539062500,131.0016021728515600,21.1286201477050780,30.2461490631103500,97,122,92,83,63,15263,2148665718,2149673810,2151856850,2147898806,2147925220,2148296585,2149844772,2147343158,170,3,16,61314
1342392644,5809,147.0500030517578000,21.2861003875732420,35.1268005371093750,223.1880035400390600,126.1803970336914000,21.2764892578125000,30.0101890563964840,106,122,93,84,63,15253,2148685632,2149570971,2151507346,2147895707,2147939419,2148251565,2149699081,2147341211,861,3,15,30412
1342392759,5805,142.9100036621093800,21.5445995330810550,35.1397018432617200,225.8542022705078000,118.8607025146484400,21.5010890960693360,29.7824192047119140,110,123,92,82,63,15236,2149347282,2150857737,2153523099,2147917723,2148189494,2148835126,2150502052,2147397970,787,3,15,6009
1342392874,5811,138.9799957275390600,21.6334991455078120,35.1445007324218750,228.7765045166015600,114.8952026367187500,21.6228294372558600,29.5883102416992200,119,122,88,83,63,15229,2149734381,2151475373,2154305426,2147924928,2148342976,2149109586,2150812955,2147427245,1700,2,16,2994
1342392977,5808,134.4299926757812500,21.7523002624511720,35.1515998840332000,230.0868988037109400,111.0058975219726600,21.7422790527343750,29.4746494293212900,119,127,93,83,63,15226,2150476498,2152641536,2155839469,2147946578,2148640091,2149646089,2151432329,2147481280,1728,2,15,760
1342393056,5809,130.5200042724609400,21.8090991973876950,35.1556015014648440,231.5991973876953000,109.0411987304687500,21.8026409149169920,29.3769798278808600,116,124,93,83,62,15223,2151261851,2153814838,2157341184,2147962148,2148958701,2150169865,2152024841,2147532708,1485,2,15,45855
1342393135,5810,126.8399963378906200,21.8843002319335940,35.1573982238769500,232.0847930908203000,106.3739013671875000,21.8846092224121100,29.3198394775390620,122,125,92,84,64,15222,2152153161,2155084845,2158900013,2147988077,2149313709,2150725120,2152633261,2147587392,734,2,15,28124
1342393240,5806,122.6800003051757800,22.1763000488281250,35.1502990722656250,231.2951049804687500,97.3643798828125000,22.1616191864013670,29.2419395446777340,142,124,93,83,63,15204,2153487533,2156940964,2161042916,2148027154,2149830400,2151463945,2153405869,2147665060,3069,2,15,62939
1342393379,5807,119.2300033569336000,22.4724006652832030,35.1875991821289060,231.5516967773437500,88.0575485229492200,22.4480705261230470,29.1108398437500000,147,126,91,85,62,15188,2154992210,2159029540,2163399451,2148067977,2150340434,2152189110,2154187968,2147744822,1471,2,15,1016
1342393518,5808,115.0199966430664000,22.7096004486084000,35.2111015319824200,231.8193969726562500,82.1810836791992200,22.6291007995605470,29.0234107971191400,150,122,90,83,60,15189,2157217782,2162042560,2166685805,2148135570,2151170304,2153328283,2155348425,2147863149,2262,3,16,13824
1342393632,5806,110.2900009155273400,22.9673004150390620,35.2472000122070300,234.1493988037109400,71.4965896606445300,22.9585895538330080,28.7787799835205080,114,119,94,83,60,15212,2160301933,2165970523,2170695542,2148231881,2152492361,2155103542,2157091309,2148038171,3018,2,16,12813
1342393711,5807,106.6200027465820300,23.2579002380371100,35.2766990661621100,236.2391052246093800,62.2798385620117200,23.2431793212890620,28.5659503936767580,94,122,93,86,61,15220,2163041956,2169466496,2174330989,2148330322,2153772361,2156820114,2158700315,2148195538,3024,2,16,21211
1342393826,5809,103.1200027465820300,23.4113006591796880,35.2899017333984400,240.0101013183593800,57.2791595458984400,23.3977394104003900,28.3316707611084000,90,128,90,84,60,15206,2166048667,2173025883,2177638052,2148438427,2155534802,2159053037,2160658642,2148373723,3186,2,16,34543
1342393965,5808,98.8600006103515600,23.6411991119384770,35.2938003540039060,243.6640014648437500,50.0091018676757800,23.6226501464843750,28.0780601501464840,78,125,90,85,59,15210,2171492644,2179401042,2183538121,2148657673,2159096749,2163433124,2164261549,2148702418,2941,2,16,51358
1342394020,5806,96.9199981689453100,23.8113994598388670,35.2918014526367200,244.0458068847656200,44.5762710571289060,23.7908706665039060,27.9937705993652340,77,125,93,86,60,15219,2174118189,2182357604,2186283538,2148756635,2160893732,2165575387,2165948004,2148850432,3552,2,16,48697
1342394075,5808,95.0899963378906200,23.9202003479003900,35.2919998168945300,244.8614044189453000,41.9318008422851560,23.8728103637695300,27.9252891540527340,73,125,92,85,60,15216,2176784795,2185350811,2188942390,2148866560,2162793938,2167838921,2167762523,2149017243,3340,2,16,21584
1342394142,5807,92.9700012207031200,24.0487995147705080,35.2923011779785160,245.3162994384765600,36.9147911071777340,24.0283508300781250,27.8434295654296880,74,127,93,84,59,15209,2179783442,2188680374,2192022985,2149038464,2164989723,2170357778,2169705883,2149202057,3189,2,16,3732
1342394220,5810,89.9199981689453100,24.1986999511718750,35.2907981872558600,246.0386047363281200,31.7926502227783200,24.1872692108154300,27.7488002777099600,71,125,92,85,59,15197,2185318409,2194900489,2197834834,2149309577,2168908498,2174867382,2173156178,2149532059,2841,2,16,43330
1342394275,5807,87.2200012207031200,24.2334995269775400,35.2943992614746100,246.4158935546875000,30.3675003051757800,24.2315196990966800,27.7148609161376950,71,125,92,84,58,15200,2190035684,2200050011,2202677494,2149653302,2172402550,2178842852,2176193389,2149832731,2032,2,16,65244
1342394330,5808,84.4000015258789000,24.3596992492675780,35.2947998046875000,245.9770965576172000,25.9795207977294920,24.3677997589111330,27.6799392700195300,73,125,95,85,58,15188,2194514541,2204419968,2206354313,2149923721,2176131044,2182955099,2179233590,2150121389,1614,1,16,33455
1342394385,5806,81.7799987792968800,24.5219993591308600,35.2933998107910160,245.3921051025390600,21.6977596282959000,24.5008907318115230,27.6528701782226560,68,129,96,85,55,15186,2200363849,2210852562,2212611300,2150387172,2180161042,2187468169,2182695259,2150483227,1497,2,16,15288
1342394440,5808,79.4599990844726600,24.6033000946044920,35.2877006530761700,245.2996063232422000,19.1505508422851560,24.5801105499267580,27.6254291534423830,67,129,95,86,58,15195,2204415926,2214732160,2215891858,2150681499,2183758656,2191294326,2185458861,2150756644,1161,2,16,51508
1342394495,5804,77.4700012207031200,24.6625003814697270,35.2718009948730500,245.4732971191406200,16.7683792114257800,24.6542205810546880,27.5887107849121100,65,125,96,84,58,15192,2208911378,2219449581,2220464256,2151148388,2187367478,2195156114,2188276489,2151055707,594,2,16,5826
1342394552,5809,75.8600006103515600,24.6937999725341800,35.2551994323730500,245.3807983398437500,15.6420001983642580,24.6892795562744140,27.5788803100585940,63,127,93,85,58,15188,2212795044,2223375268,2224156882,2151526464,2190864704,2198832512,2190891510,2151324589,116,2,16,48248
1342394619,5809,74.5000000000000000,24.7355995178222660,35.2232017517089840,245.4427947998047000,14.2630701065063480,24.7322006225585940,27.5593109130859380,62,123,95,85,55,15183,2217038829,2227952448,2228163867,2151832329,2194298550,2202479606,2193421156,2151574299,3222,2,16,7046
1342394794,5816,72.7600021362304700,24.9150009155273440,35.2358016967773440,245.4631958007812500,8.9018402099609380,24.8992004394531250,27.4927997589111330,62,122,92,84,57,15186,2223376256,2234053494,2233539666,2152389366,2200565056,2208826742,2197468562,2152004818,1815,2,16,8371
1342394919,5804,69.7699966430664000,24.9144992828369140,35.2360000610351560,245.9445953369140600,8.4329185485839840,24.9138107299804700,27.4660892486572270,60,128,94,85,58,15178,2231664411,2241113846,2239206016,2153361325,2209064457,2216976914,2202869577,2152603904,164,2,16,46656
1342394974,5809,67.1699981689453100,24.9118995666503900,35.2341995239257800,246.1239929199218800,8.4064626693725590,24.9146404266357420,27.4581794738769530,60,123,92,86,59,15185,2242357302,2252187163,2249695689,2154581430,2217541778,2225774226,2209321252,2153334857,376,2,16,10576
1342395029,5808,64.4499969482421900,24.9307994842529300,35.2328987121582000,246.1260986328125000,7.8622069358825680,24.9316005706787100,27.4512996673584000,60,124,90,86,56,15185,2254621604,2264542774,2261603392,2156215698,2227530322,2235957750,2216759140,2154279798,463,2,16,11681
1342395084,5809,61.9000015258789060,24.9305992126464840,35.2281990051269500,246.4089965820312500,7.6697411537170410,24.9375991821289060,27.4368591308593750,59,124,94,84,54,15182,2259276260,2268084397,2264263652,2157244050,2231820598,2239164946,2218311387,2154611428,600,2,16,24481
1342395139,5806,59.6100006103515600,25.0090999603271500,35.2268981933593750,246.3892059326172000,5.3679141998291020,25.0093708038330080,27.4096202850341800,59,125,93,85,59,15172,2271655762,2280027236,2275431936,2159140324,2243098934,2250322624,2226150372,2155600566,326,2,16,54259
1342395196,5808,57.6199989318847660,25.2187004089355470,35.2365989685058600,245.8359069824218800,-0.9873121976852417,25.2076606750488280,27.3558597564697270,58,127,92,88,57,15172,2279253933,2285393563,2278413787,2160010898,2250714587,2256881298,2230192932,2156169014,490,2,15,54755
1342395251,5808,56.2400016784668000,25.4379997253417970,35.1497001647949200,244.6443939208984400,-8.4078397750854500,25.4395008087158200,27.3167304992675780,59,126,93,88,60,15178,2287543606,2295222985,2288439926,2161714880,2258805531,2264318518,2235121938,2156818953,3001,1,17,23602
1342395581,5810,54.3699989318847660,25.6303997039794920,35.0864982604980500,238.9022064208984400,-14.5054903030395500,25.6302604675292970,27.4942893981933600,58,121,92,84,54,15174,2293274934,2300744512,2293222098,2162890989,2272491894,2276394806,2242541476,2157775012,2755,2,16,27563
1342395696,5808,52.6399993896484400,25.6366004943847660,35.0861015319824200,237.8368988037109400,-15.1255798339843750,25.6496791839599600,27.5341796875000000,55,120,95,85,56,15177,2298299126,2304917961,2296634678,2164783826,2282946596,2285331638,2248394706,2158570925,3166,1,16,45306
1342395834,5806,50.0000000000000000,25.6487007141113280,35.0850982666015600,237.1793975830078000,-15.2400503158569340,25.6532592773437500,27.5622406005859380,54,121,94,85,57,15175,2307307300,2315016000,2307290706,2168202706,2304272987,2302743844,2258522441,2160132982,2701,2,16,51061
1342395889,5808,47.9199981689453100,25.6520996093750000,35.0848999023437500,236.9779052734375000,-15.3241395950317380,25.6558895111084000,27.5702705383300780,53,120,89,84,54,15177,2320201051,2329205961,2322004672,2172098413,2320532534,2316177984,2266372096,2161661037,2373,1,16,48439
1342395944,5808,45.7299995422363300,25.6529998779296880,35.0844001770019500,236.8175048828125000,-15.3780298233032230,25.6575794219970700,27.5767498016357420,53,120,92,83,51,15174,2332429266,2342318592,2335793554,2175870802,2340363291,2333505106,2277183753,2163345124,2165,2,16,39116
1342395999,5810,43.3899993896484400,25.6529006958007800,35.0848999023437500,236.8171997070312500,-15.4819898605346680,25.6608390808105470,27.5754394531250000,53,118,93,85,58,15181,2345217115,2355862299,2349530029,2181648301,2361949101,2352245577,2288987446,2165392621,2204,2,16,54378
1342396054,5809,40.8800010681152340,25.6553993225097660,35.0839996337890600,236.9443054199218800,-15.5494499206542970,25.6629505157470700,27.5690593719482420,52,119,93,85,57,15179,2355030409,2366043392,2360330953,2187138962,2381336036,2368408420,2299096283,2167278683,2525,2,16,59390
1342396132,5806,36.4799995422363300,25.6588993072509770,35.0847015380859400,237.0357055664062500,-15.6094503402709960,25.6648292541503900,27.5640792846679700,53,120,90,86,53,15177,2373226752,2384737051,2379607131,2200095305,2420379492,2401651702,2320322971,2171952731,2739,2,16,65376
1342396187,5809,32.6899986267089840,25.6599006652832030,35.0848999023437500,237.0796966552734400,-15.6773996353149410,25.6669502258300780,27.5613708496093750,53,119,93,84,61,15178,2399745764,2413449435,2409675940,2215231040,2455311753,2431972589,2339564681,2176423542,2871,1,16,40600
1342396242,5801,28.8700008392334000,25.6669006347656250,35.0843009948730500,237.0222015380859400,-15.9148197174072270,25.6743907928466800,27.5610103607177730,52,119,91,85,58,15175,2410066404,2422849334,2420577974,2232659657,2484342765,2455736420,2355253787,2181344402,2958,1,16,39923
1342396297,5807,25.0300006866455080,25.6702003479003900,35.0858001708984400,237.2590942382812500,-16.2067108154296880,25.6835308074951170,27.5467796325683600,51,119,93,84,53,15183,2456656283,2475446482,2478376996,2269493659,2530250770,2496051702,2382051337,2190669476,2900,3,15,31977
